Home   Weather   Barrie   Past weeks

Flag for Canada Past Weather in Barrie, Ontario, Canada — Yesterday and Last 2 Weeks

Now
18 °F

Passing clouds.


Feels Like: 9 °F
Forecast: 19 / 29 °F
Wind: 6 mph from Southwest

Location: Borden

Current Time: Dec 11, 2016 at 1:28:34 am

Latest Report: Dec 11, 2016 at 1:00 am


Visibility: 9 mi

Pressure: 30.36 "Hg

Humidity: 86%

Dew Point: 14 °F

Location of BarrieLocation

Past Weather in Barrie — Graph

°F

Barrie Temperature Yesterday

Maximum temperature yesterday: 25 °F (at 3:03 pm)
Minimum temperature yesterday: -2 °F (at 4:03 am)
Average temperature yesterday: 12 °F

High & Low Weather Summary for the Past Weeks

 TemperatureHumidityPressure
High57 °F (Nov 29, 12:00 pm)100% (Nov 26, 12:00 am)30.38 "Hg (Nov 26, 12:00 am)
Low-2 °F (Dec 10, 4:03 am)59% (Nov 29, 1:00 pm)29.41 "Hg (Nov 30, 10:54 pm)
Average34 °F89%29.97 "Hg
* Reported Nov 26 12:00 am — Dec 11 12:00 am, Barrie, Weather by CustomWeather, © 2016

Note: Actual official high and low records may vary slightly from our data, if they occured in-between our weather recording intervals... More about our weather records

Advertising

Barrie Weather History for the Previous 24 Hours

Scroll right to see more
 ConditionsComfort  
Time TempWeatherWind HumidityBarometerVisibility
12:00 am
Sun, Dec 11
19 °FOvercast.10 mph79%30.37 "Hg9 mi
11:00 pm
Sat, Dec 10
18 °FPassing clouds.9 mph79%30.36 "Hg9 mi
10:00 pm18 °FPassing clouds.9 mph79%30.35 "Hg9 mi
9:00 pm19 °FClear.9 mph79%30.35 "Hg9 mi
8:00 pm16 °FClear.5 mph86%30.36 "Hg9 mi
7:00 pm19 °FPassing clouds.9 mph73%30.36 "Hg9 mi
6:00 pm19 °FClear.7 mph79%30.37 "Hg9 mi
5:00 pm19 °FPartly cloudy.6 mph86%30.36 "Hg9 mi
4:00 pm25 °FCloudy.8 mph74%30.34 "Hg9 mi
3:03 pm25 °FLight snow. Overcast.2 mph93%30.28 "Hg9 mi
2:00 pm23 °FMostly cloudy.3 mph86%30.33 "Hg9 mi
1:00 pm21 °FPartly sunny.6 mph93%30.33 "Hg9 mi
12:00 pm19 °FOvercast.2 mph93%30.35 "Hg9 mi
11:00 am18 °FOvercast.No wind93%30.37 "Hg9 mi
10:00 am12 °FOvercast.No wind92%30.38 "Hg9 mi
9:00 am7 °FOvercast.2 mph92%30.38 "Hg9 mi
8:00 am5 °FOvercast.No wind92%30.38 "Hg9 mi
7:00 am3 °FOvercast.No wind100%30.37 "Hg9 mi
6:00 am-2 °FOvercast.No wind100%30.37 "Hg9 mi
5:00 am-2 °FPassing clouds.No wind92%30.36 "Hg9 mi
4:03 am-2 °FPartly cloudy.No wind100%30.30 "Hg1 mi
3:00 am3 °FMostly cloudy.No wind92%30.36 "Hg0 mi
2:59 am3 °FMostly cloudy.No wind92%30.31 "Hg0 mi
2:02 am1 °FMostly cloudy.2 mph92%30.31 "Hg0 mi
1:00 am3 °FOvercast.No wind100%30.35 "Hg1 mi
Weather by CustomWeather, © 2016

See weather overviewHow to use our weather pages